[[{"header":{"parameterUnit":"m.s-1","parameterCategory":1,"la1":30.2991,"la2":30.254,"lo1":-89.0895,"lo2":-89.0444,"dy":0.0017,"dx":0.0017,"nx":28,"ny":28,"refTime":"2026-02-27T03:00:00:Z","depth":0,"parameterNumber":2,"parameterNumberName":"U-component_of_WINDS"},"data":[0,0,0,0,0,0,0,0,0,0,0,0,0,0,0,0,0,0,0,0,0,0,0,0,0,0,0,0,0,0,0,0,0,0,0,0,0,0,0,0,0,0,0,0,0,0,0,0,0,0,0,0,0,0,0,0,0,0,0.3422,0.3423,0,0.3472,0.3473,0.3473,0.3522,0.3523,0.3524,0.3524,0.3575,0.3576,0.3577,0,0,0,0,0,0,0,0,0,0,0,0,0,0.3371,0.3372,0.3422,0.3423,0.3423,0.3472,0.3473,0.3473,0.3522,0.3523,0.3524,0.3525,0.3575,0.3576,0.3577,0,0,0,0,0,0,0,0,0,0,0,0,0,0.3404,0.3372,0.3422,0.3454,0.3457,0.3472,0.3473,0.3474,0.3522,0.3523,0.3524,0.3525,0.3575,0.3576,0.3577,0.3564,0,0,0.358,0.3581,0,0,0,0,0,0,0,0,0.3402,0.3406,0.3448,0.3452,0.3455,0.3492,0.3473,0.3504,0.3522,0.3497,0.3524,0.3525,0.3547,0.355,0.3557,0.3567,0.3569,0.358,0.3581,0.3581,0.3582,0,0,0,0,0,0,0,0.34,0.3404,0.3442,0.3449,0.3453,0.3466,0.3472,0.3479,0.3516,0.35,0.3503,0.3509,0.3549,0.3556,0.3559,0.357,0.358,0.3581,0.3582,0.3582,0.3575,0.3574,0,0,0,0,0,0,0.3393,0.3402,0.344,0.3443,0.3431,0.3466,0.3473,0.3479,0.3516,0.3523,0.3508,0.3511,0.3554,0.3558,0.3561,0.3551,0.3581,0.3583,0.3583,0.3576,0.3575,0.3574,0,0,0,0,0,0,0.3391,0.3396,0.3438,0.3424,0.343,0.3466,0.3473,0.348,0.3487,0.3522,0.3529,0.3508,0.3555,0.3559,0.3564,0.3554,0.3583,0.3584,0.3577,0.3575,0.3574,0.353,0,0,0,0,0,0,0.339,0.3395,0.339,0.3423,0.3431,0.344,0.3472,0.348,0.3489,0.3493,0.3525,0.3531,0.3556,0.3562,0.3565,0.3556,0.3585,0.3578,0.3576,0.3575,0.3533,0.3528,0.3523,0,0,0,0,0,0.3388,0.3375,0.3389,0.3394,0.3425,0.3439,0.3444,0.3473,0.3488,0.3484,0.3507,0.353,0.3554,0.3562,0.3566,0.3557,0.3579,0.3577,0.3575,0.3535,0.3529,0.3523,0,0,0,0,0,0,0.3339,0.338,0.3396,0.3394,0.3413,0.3447,0.3443,0.3464,0.3479,0.3483,0.3518,0.3525,0.3526,0.3542,0.355,0.3548,0.357,0.3568,0.3538,0.3532,0.3528,0.3525,0.3586,0,0,0,0,0,0.3328,0.3335,0.3371,0.3365,0.3374,0.3407,0.3414,0.3435,0.3456,0.3464,0.3487,0.3507,0.3519,0.3526,0.3539,0.3535,0.3544,0.3531,0.3526,0.3522,0.3521,0.3523,0.3518,0.3567,0.3567,0.3567,0,0,0.3305,0.3328,0.3331,0.3356,0.3373,0.3381,0.3413,0.3419,0.3426,0.3465,0.3471,0.3489,0.3513,0.3514,0.3516,0.3527,0.3509,0.3519,0.3516,0.3517,0.352,0.3515,0.3511,0.3566,0.3566,0.3566,0,0,0.3268,0.3285,0.3284,0.3301,0.3327,0.3349,0.3349,0.3381,0.3394,0.3401,0.3432,0.344,0.346,0.3477,0.3488,0.346,0.3483,0.3463,0.3439,0.344,0.3436,0.3433,0.3425,0.3422,0.3462,0.3462,0.3462,0,0.3237,0.3249,0.3281,0.3286,0.3297,0.3333,0.3333,0.3348,0.3377,0.3384,0.3396,0.3424,0.3443,0.345,0.3443,0.345,0.3453,0.3461,0.3434,0.3431,0.3429,0.3422,0.3419,0.3459,0.346,0.346,0.346,0,0.3211,0.3219,0.3215,0.3243,0.3254,0.3256,0.3289,0.3296,0.3316,0.3337,0.3346,0.337,0.339,0.3392,0.3412,0.3403,0.341,0.3427,0.345,0.3421,0.3416,0.3413,0.3456,0.3457,0.3458,0.3458,0,0,0.3144,0.3191,0.3189,0.3203,0.3235,0.3243,0.3248,0.3268,0.3274,0.3293,0.3299,0.3316,0.3334,0.3347,0.3369,0.337,0.3349,0.3388,0.3389,0.3382,0.3344,0.3331,0.3328,0.3364,0.3364,0.3363,0.3343,0,0.3114,0.3125,0.3155,0.3157,0.3167,0.3202,0.3207,0.3227,0.3248,0.326,0.3282,0.3295,0.3316,0.3324,0.3327,0.3351,0.3342,0.3353,0.3372,0.3372,0.3366,0.3324,0.3311,0.329,0.334,0.334,0.334,0,0.3081,0.3099,0.3102,0.3137,0.3142,0.3145,0.3167,0.3178,0.3203,0.3218,0.3233,0.3258,0.3266,0.3286,0.33,0.3306,0.3316,0.3329,0.3329,0.3333,0.3355,0.3329,0.3284,0.3281,0.3336,0.3336,0.3336,0,0.3035,0.306,0.3066,0.3077,0.3116,0.3118,0.3134,0.316,0.3171,0.3191,0.3199,0.3218,0.323,0.3245,0.3275,0.3286,0.3286,0.3308,0.33,0.33,0.33,0.33,0.3257,0.3303,0.3303,0.3303,0.3303,0,0.3,0.3001,0.3046,0.305,0.3054,0.3087,0.309,0.311,0.3133,0.3142,0.3173,0.3182,0.322,0.3233,0.3257,0.3266,0.327,0.3284,0.329,0.3282,0.328,0.329,0.3293,0.3302,0.3302,0.3302,0.3302,0,0.295,0.2979,0.2989,0.3026,0.3035,0.3036,0.3068,0.3074,0.3097,0.3108,0.3113,0.3149,0.3166,0.3198,0.3223,0.3239,0.3244,0.3254,0.3236,0.324,0.3232,0.3233,0.3195,0.3193,0.3238,0.3237,0.3237,0,0.2926,0.2928,0.2966,0.2974,0.299,0.3003,0.3015,0.3049,0.306,0.309,0.3093,0.3112,0.313,0.3157,0.3185,0.3206,0.3218,0.3203,0.3221,0.3214,0.3221,0.3221,0.3222,0.32,0.3199,0.3198,0.3198,0,0.2882,0.2897,0.2913,0.2934,0.2948,0.2966,0.2986,0.2992,0.3031,0.3042,0.306,0.3074,0.3102,0.3122,0.3147,0.3165,0.3189,0.3192,0.3192,0.3184,0.3175,0.3182,0.3227,0.3193,0.3194,0.3194,0.3194,0.3194,0.2846,0.2851,0.2878,0.2895,0.2914,0.2933,0.2941,0.2965,0.2981,0.3006,0.3025,0.3043,0.307,0.3107,0.3124,0.3139,0.3149,0.3148,0.3149,0.3148,0.3146,0.3171,0.3143,0.3143,0.3143,0.3144,0.3144,0,0.2806,0.2825,0.2841,0.2869,0.2883,0.2903,0.2927,0.2938,0.2953,0.2976,0.2994,0.3016,0.3036,0.3067,0.309,0.3097,0.3108,0.3102,0.3102,0.3107,0.3134,0.3133,0.3092,0.3092,0.3092,0.3092,0.3092,0.3092,0.2786,0.2796,0.2815,0.2835,0.2855,0.2872,0.2885,0.2903,0.2922,0.2945,0.2962,0.2983,0.301,0.3035,0.3055,0.3064,0.3072,0.3062,0.3075,0.31,0.3104,0.3109,0.3108,0.3063,0.3063,0.3047,0.3047,0.3047]},{"header":{"parameterUnit":"m.s-1","parameterCategory":1,"la1":30.2991,"la2":30.254,"lo1":-89.0895,"lo2":-89.0444,"dy":0.0017,"dx":0.0017,"nx":28,"ny":28,"refTime":"2026-02-27T03:00:00:Z","depth":0,"parameterNumber":3,"parameterNumberName":"V-component_of_WINDS"},"data":[0,0,0,0,0,0,0,0,0,0,0,0,0,0,0,0,0,0,0,0,0,0,0,0,0,0,0,0,0,0,0,0,0,0,0,0,0,0,0,0,0,0,0,0,0,0,0,0,0,0,0,0,0,0,0,0,0,0,4.7702,4.7702,0,4.7676,4.7675,4.7675,4.767,4.767,4.767,4.767,4.7639,4.7638,4.7637,0,0,0,0,0,0,0,0,0,0,0,0,0,4.7746,4.7745,4.7702,4.7702,4.7702,4.7676,4.7675,4.7675,4.767,4.767,4.767,4.7671,4.7639,4.7638,4.7637,0,0,0,0,0,0,0,0,0,0,0,0,0,4.7724,4.7745,4.7702,4.7696,4.7695,4.7676,4.7675,4.7675,4.767,4.767,4.767,4.7671,4.764,4.7638,4.7637,4.762,0,0,4.7632,4.7631,0,0,0,0,0,0,0,0,4.7725,4.7722,4.7697,4.7697,4.7696,4.7677,4.7679,4.7657,4.767,4.7679,4.767,4.7671,4.7651,4.7648,4.7643,4.7619,4.7618,4.7632,4.7631,4.763,4.763,0,0,0,0,0,0,0,4.7727,4.7723,4.7692,4.7697,4.7696,4.7694,4.7691,4.7675,4.7663,4.7678,4.7678,4.7675,4.765,4.7644,4.7642,4.7617,4.7632,4.763,4.7629,4.7629,4.7581,4.7581,0,0,0,0,0,0,4.773,4.7725,4.7693,4.7691,4.7712,4.7693,4.769,4.7682,4.7664,4.7661,4.7675,4.7675,4.7647,4.7644,4.7641,4.7622,4.763,4.7629,4.7628,4.7582,4.7581,4.7581,0,0,0,0,0,0,4.7731,4.7727,4.7694,4.7708,4.7703,4.7692,4.7683,4.7682,4.7675,4.7661,4.7659,4.7671,4.7647,4.7643,4.7626,4.7621,4.7628,4.7627,4.7582,4.7581,4.7581,4.7583,0,0,0,0,0,0,4.7732,4.7728,4.7722,4.7708,4.7703,4.768,4.7683,4.7681,4.7673,4.7673,4.7656,4.7654,4.7647,4.7629,4.7625,4.7619,4.7625,4.7582,4.7582,4.7581,4.7584,4.7583,4.7582,0,0,0,0,0,4.7734,4.7722,4.7721,4.7717,4.7695,4.768,4.7677,4.767,4.7673,4.7666,4.7658,4.7655,4.7622,4.7627,4.7623,4.7616,4.7583,4.7582,4.7581,4.7584,4.7583,4.7582,0,0,0,0,0,0,4.7733,4.772,4.7719,4.7703,4.7693,4.7679,4.7671,4.7669,4.7657,4.7657,4.7648,4.7644,4.7629,4.7621,4.7626,4.76,4.7602,4.7601,4.7606,4.7605,4.7605,4.7607,4.7624,0,0,0,0,0,4.7731,4.7721,4.771,4.7696,4.7692,4.7682,4.7675,4.7671,4.766,4.7655,4.7645,4.7634,4.7621,4.7613,4.76,4.7583,4.758,4.7576,4.7576,4.7575,4.7574,4.7566,4.7564,4.7578,4.7578,4.7578,0,0,4.7727,4.7719,4.7712,4.7696,4.7688,4.7677,4.7679,4.7666,4.7658,4.7653,4.7638,4.763,4.7616,4.76,4.7592,4.7593,4.7569,4.7574,4.7574,4.7573,4.7565,4.7563,4.7562,4.7578,4.7578,4.7578,0,0,4.7714,4.7706,4.7695,4.7688,4.7676,4.7671,4.7668,4.7656,4.7651,4.7636,4.7632,4.7622,4.76,4.7591,4.7584,4.7571,4.7567,4.7567,4.7563,4.7555,4.7554,4.7553,4.7549,4.7548,4.7565,4.7565,4.7565,0,4.7709,4.7694,4.7689,4.7678,4.7671,4.7669,4.7657,4.765,4.7634,4.763,4.7631,4.7605,4.7596,4.7578,4.7575,4.7569,4.7566,4.7568,4.7555,4.7554,4.7553,4.7549,4.7547,4.7565,4.7565,4.7565,4.7565,0,4.7689,4.7679,4.7671,4.7659,4.7651,4.764,4.7633,4.7626,4.7624,4.7618,4.7603,4.7592,4.7578,4.7574,4.757,4.7556,4.7557,4.7557,4.7559,4.7552,4.7548,4.7546,4.7565,4.7565,4.7565,4.7565,0,0,4.7673,4.766,4.7657,4.7653,4.7641,4.7633,4.7622,4.761,4.7605,4.7595,4.7586,4.7569,4.7569,4.7561,4.7556,4.755,4.7541,4.755,4.755,4.755,4.7527,4.7528,4.7526,4.754,4.754,4.7539,4.7528,0,4.7658,4.764,4.7637,4.7621,4.7612,4.7611,4.7601,4.7593,4.7588,4.7579,4.7573,4.7562,4.7562,4.7558,4.7551,4.7544,4.7537,4.7545,4.7531,4.753,4.7534,4.7524,4.7524,4.7514,4.7527,4.7527,4.7526,0,4.7639,4.7631,4.7615,4.7607,4.7603,4.7595,4.7585,4.7577,4.7568,4.7565,4.7557,4.7554,4.7543,4.7546,4.7531,4.7536,4.7531,4.7527,4.7526,4.7524,4.7528,4.7522,4.751,4.7509,4.7524,4.7524,4.7524,0,4.763,4.7615,4.7604,4.76,4.759,4.7584,4.758,4.7571,4.7565,4.7557,4.7553,4.7542,4.7536,4.7528,4.7523,4.7525,4.7508,4.7511,4.7505,4.7505,4.7501,4.7501,4.7489,4.7497,4.7497,4.7497,4.7497,0,4.7614,4.7604,4.76,4.7593,4.7582,4.7579,4.7568,4.7563,4.7557,4.7549,4.7546,4.7539,4.7532,4.7523,4.7519,4.7507,4.7504,4.7502,4.75,4.7502,4.7502,4.7498,4.7498,4.7497,4.7497,4.7497,4.7497,0,4.7601,4.7598,4.7586,4.7579,4.7577,4.7569,4.7563,4.7556,4.7552,4.7542,4.754,4.7533,4.7523,4.7517,4.7504,4.7501,4.7489,4.7488,4.7492,4.7492,4.7487,4.7488,4.7471,4.7469,4.7479,4.7479,4.7479,0,4.7591,4.7584,4.7577,4.7573,4.7569,4.7561,4.7556,4.7553,4.7547,4.7538,4.7533,4.7523,4.7515,4.75,4.7493,4.7484,4.7483,4.7478,4.7481,4.7483,4.7483,4.7484,4.7484,4.7477,4.7476,4.7476,4.7476,0,4.7575,4.7574,4.7567,4.7561,4.7555,4.7549,4.7543,4.7539,4.7535,4.7529,4.752,4.7514,4.7503,4.7493,4.7484,4.7478,4.7477,4.7476,4.7474,4.7475,4.7479,4.7477,4.7491,4.7476,4.7476,4.7476,4.7476,4.7476,4.7563,4.7558,4.7553,4.7546,4.7542,4.7537,4.7531,4.7527,4.752,4.7512,4.751,4.7501,4.7494,4.7481,4.7476,4.7469,4.7469,4.7467,4.7466,4.7466,4.7466,4.748,4.7467,4.7467,4.7467,4.7467,4.7467,0,4.7547,4.7545,4.7538,4.7531,4.7526,4.7527,4.7521,4.7517,4.7509,4.7504,4.7497,4.7488,4.7479,4.7473,4.7465,4.746,4.746,4.7458,4.7458,4.7458,4.7465,4.7468,4.7459,4.7459,4.7459,4.7459,4.7459,4.7459,4.7538,4.7529,4.7529,4.7518,4.7515,4.7508,4.7504,4.75,4.7496,4.7486,4.748,4.7477,4.7471,4.7463,4.7456,4.7454,4.7451,4.745,4.7449,4.7456,4.7457,4.7458,4.746,4.745,4.745,4.7442,4.7442,4.7441]}]]